EW1607 Weather Reports


Display with metric or nautical units.
time (UTC)temp
F
wind
direction
speed
MPH
gust
MPH
rain 1hr
in
rain 24hr
in
rain mn
in
humidity
%
barometer
mb
20260506211110 53 71 2.0 5.0 0.00 0.00 0.00 47 1012.5
20260506210557 53 61 2.0 7.0 0.00 0.00 0.00 46 1012.5
20260506210339 53 51 1.0 7.0 0.00 0.00 0.00 47 1012.6
20260506210335 53 63 1.0 6.0 0.00 0.00 0.00 48 1012.4
20260506205049 53 219 2.0 6.0 0.00 0.00 0.00 48 1012.5
20260506204542 53 61 1.0 6.0 0.00 0.00 0.00 47 1012.5
20260506204037 53 169 1.0 6.0 0.00 0.00 0.00 47 1012.6
20260506203533 53 70 1.0 6.0 0.00 0.00 0.00 47 1012.6
20260506203010 53 52 2.0 6.0 0.00 0.00 0.00 47 1012.5
20260506202505 53 46 2.0 7.0 0.00 0.00 0.00 51 1012.5
20260506201954 53 56 1.0 7.0 0.00 0.00 0.00 48 1012.5
20260506201448 53 111 1.0 9.0 0.00 0.00 0.00 49 1007.8
20260506200941 52 69 2.0 9.0 0.00 0.00 0.00 49 1012.5
20260506200729 53 68 1.0 4.0 0.00 0.00 0.00 47 1012.8
20260506200725 53 81 2.0 6.0 0.00 0.00 0.00 47 1012.7
20260506195354 53 91 1.0 7.0 0.00 0.00 0.00 50 1012.7
20260506195109 53 131 1.0 7.0 0.00 0.00 0.00 48 1012.7
20260506194352 53 70 2.0 9.0 0.00 0.00 0.00 48 1012.7
20260506193843 53 108 3.0 9.0 0.00 0.00 0.00 49 1012.8
20260506193336 53 68 2.0 8.0 0.00 0.00 0.00 47 1012.8
20260506193053 53 210 1.0 9.0 0.00 0.00 0.00 47 1012.8
20260506192308 52 214 2.0 7.0 0.00 0.00 0.00 48 1012.9
20260506191757 53 58 2.0 9.0 0.00 0.00 0.00 48 1013.0
20260506191252 53 60 2.0 7.0 0.00 0.00 0.00 49 1013.0
20260506191010 53 63 1.0 6.0 0.00 0.00 0.00 48 1013.1
20260506190221 53 79 2.0 8.0 0.00 0.00 0.00 49 1012.9
20260506185708 53 84 1.0 8.0 0.00 0.00 0.00 48 1012.9
20260506185208 54 93 1.0 7.0 0.00 0.00 0.00 49 1012.9
20260506184707 53 81 1.0 7.0 0.00 0.00 0.00 48 1012.8
20260506184143 54 89 1.0 4.0 0.00 0.00 0.00 47 1012.7
20260506183913 54 207 1.0 5.0 0.00 0.00 0.00 49 1012.8
20260506183123 53 222 2.0 6.0 0.00 0.00 0.00 48 1012.7
20260506182622 53 214 1.0 6.0 0.00 0.00 0.00 49 1012.6
20260506182119 53 66 1.0 8.0 0.00 0.00 0.00 51 1012.7
20260506181616 52 216 1.0 8.0 0.00 0.00 0.00 51 1012.7
20260506181106 52 113 2.0 10.0 0.00 0.00 0.00 51 1012.8
20260506180608 51 90 2.0 10.0 0.00 0.00 0.00 51 1012.8
20260506180048 51 209 2.0 9.0 0.00 0.00 0.00 50 1012.8
20260506175545 52 117 1.0 9.0 0.00 0.00 0.00 50 1012.8
20260506175028 52 244 1.0 4.0 0.00 0.00 0.00 50 1012.8
20260506174517 51 193 2.0 4.0 0.00 0.00 0.00 51 1012.8
20260506174256 51 101 2.0 8.0 0.00 0.00 0.00 52 1012.9
20260506173513 51 86 2.0 8.0 0.00 0.00 0.00 50 1013.0
20260506173003 51 110 2.0 12.0 0.00 0.00 0.00 51 1013.2
20260506172431 51 251 2.0 12.0 0.00 0.00 0.00 51 1013.2
20260506171858 51 88 2.0 7.0 0.00 0.00 0.00 50 1013.3
20260506171356 51 101 1.0 7.0 0.00 0.00 0.00 51 1008.8
20260506170858 51 95 1.0 6.0 0.00 0.00 0.00 53 1013.0
20260506170352 51 83 2.0 8.0 0.00 0.00 0.00 55 1013.0
20260506165844 51 81 1.0 8.0 0.00 0.00 0.00 55 1013.0
20260506165335 51 110 1.0 6.0 0.00 0.00 0.00 53 1012.9
20260506165103 51 115 1.0 5.0 0.00 0.00 0.00 53 1013.0
20260506164332 51 131 1.0 8.0 0.00 0.00 0.00 54 1012.9
20260506163805 50 245 1.0 8.0 0.00 0.00 0.00 53 1012.9
20260506163302 51 109 1.0 4.0 0.00 0.00 0.00 53 1012.8
20260506162805 51 145 1.0 7.0 0.00 0.00 0.00 52 1012.9
20260506162251 51 99 1.0 7.0 0.00 0.00 0.00 53 1012.8
20260506161718 51 66 2.0 6.0 0.00 0.00 0.00 52 1012.8
20260506161213 51 90 2.0 15.0 0.00 0.00 0.00 53 1013.0
20260506160712 51 89 3.0 15.0 0.00 0.00 0.00 52 1012.8
20260506160208 51 81 2.0 9.0 0.00 0.00 0.00 52 1012.6
20260506155652 53 79 2.0 12.0 0.00 0.01 0.00 53 1012.7
20260506155432 52 72 2.0 12.0 0.00 0.01 0.00 52 1012.6
20260506154652 52 80 2.0 7.0 0.00 0.01 0.00 55 1012.6
20260506154142 52 70 2.0 7.0 0.00 0.01 0.00 50 1012.5
20260506153608 52 102 2.0 9.0 0.00 0.01 0.00 52 1012.5
20260506153103 52 64 2.0 9.0 0.00 0.01 0.00 53 1012.5
20260506152532 53 101 1.0 6.0 0.00 0.01 0.00 55 1012.6
20260506152025 53 120 1.0 6.0 0.00 0.01 0.00 54 1012.4
20260506151754 53 210 2.0 8.0 0.00 0.01 0.00 52 1012.4
20260506151249 53 88 2.0 5.0 0.00 0.01 0.00 54 1012.4
20260506150458 53 98 3.0 7.0 0.00 0.01 0.00 52 1012.3
20260506145947 52 82 3.0 9.0 0.00 0.01 0.00 52 1012.2
20260506145720 52 231 2.0 9.0 0.00 0.01 0.00 50 1012.2
20260506145220 52 58 3.0 8.0 0.00 0.01 0.00 52 1012.2
20260506144423 52 37 2.0 6.0 0.00 0.01 0.00 52 1011.9
20260506144416 53 48 2.0 8.0 0.00 0.01 0.00 49 1012.1
20260506143920 53 48 2.0 8.0 0.00 0.01 0.00 49 1012.1
20260506143652 54 94 1.0 8.0 0.00 0.01 0.00 48 1012.0
20260506143135 53 250 1.0 6.0 0.00 0.01 0.00 52 1012.0
20260506142401 53 67 1.0 7.0 0.00 0.01 0.00 52 1012.0
20260506141852 53 63 1.0 7.0 0.00 0.01 0.00 53 1012.1
20260506141355 53 47 1.0 4.0 0.00 0.01 0.00 51 1007.3
20260506140853 53 211 1.0 8.0 0.00 0.01 0.00 49 1011.9
20260506140350 53 91 1.0 8.0 0.00 0.01 0.00 51 1011.9
20260506135844 53 291 1.0 7.0 0.00 0.01 0.00 53 1011.8
20260506135553 52 30 2.0 5.0 0.00 0.01 0.00 53 1011.6
20260506134817 52 110 1.0 8.0 0.00 0.01 0.00 50 1011.6
20260506134321 52 75 1.0 8.0 0.00 0.01 0.00 51 1011.6
20260506133810 52 115 1.0 8.0 0.00 0.01 0.00 52 1011.7
20260506133305 52 234 1.0 8.0 0.00 0.01 0.00 52 1011.6
20260506132753 52 194 1.0 5.0 0.00 0.01 0.00 53 1011.6
20260506132246 52 91 1.0 5.0 0.00 0.01 0.00 52 1011.4
20260506131746 52 139 1.0 4.0 0.00 0.01 0.00 55 1011.3
20260506131253 51 147 1.0 4.0 0.00 0.01 0.00 59 1011.4
20260506130723 51 264 1.0 4.0 0.00 0.01 0.00 60 1011.3
20260506130224 50 217 1.0 6.0 0.00 0.01 0.00 63 1011.3
20260506125705 50 93 1.0 6.0 0.00 0.01 0.00 63 1011.1
20260506125153 50 82 1.0 4.0 0.00 0.01 0.00 62 1011.1
20260506124649 50 56 0.0 3.0 0.00 0.01 0.00 63 1011.0
20260506124152 50 94 0.0 4.0 0.00 0.01 0.00 63 1011.0
20260506123851 49 255 0.0 4.0 0.00 0.01 0.00 65 1010.9
20260506123118 49 67 0.0 4.0 0.00 0.01 0.00 64 1010.8
20260506122601 48 72 0.0 2.0 0.00 0.01 0.00 65 1010.6
20260506122101 47 214 0.0 5.0 0.00 0.01 0.00 69 1010.6
20260506121542 46 115 0.0 3.0 0.00 0.01 0.00 69 1010.2
20260506121035 44 74 0.0 1.0 0.00 0.01 0.00 70 1010.3
20260506120514 44 90 0.0 1.0 0.00 0.01 0.00 70 1010.3
20260506120013 44 104 0.0 2.0 0.00 0.01 0.00 72 1010.2
20260506115502 44 97 0.0 2.0 0.00 0.01 0.00 72 1010.2
20260506115003 44 70 0.0 2.0 0.00 0.01 0.00 71 1010.2
20260506114457 44 77 0.0 2.0 0.00 0.01 0.00 72 1010.2
20260506114124 44 70 0.0 1.0 0.00 0.01 0.00 72 1010.1
20260506113356 44 100 0.0 1.0 0.00 0.01 0.00 70 1010.0
20260506113117 44 110 0.0 1.0 0.00 0.01 0.00 72 1009.9
20260506112332 44 111 0.0 0.0 0.00 0.01 0.00 72 1009.8
20260506111757 43 111 0.0 1.0 0.00 0.01 0.00 71 1009.8
20260506111259 43 277 0.0 1.0 0.00 0.01 0.00 71 1009.7
20260506110752 43 121 0.0 0.0 0.00 0.01 0.00 70 1009.6
20260506110242 44 121 0.0 2.0 0.00 0.01 0.00 70 1009.5
20260506105926 44 85 0.0 2.0 0.00 0.01 0.00 69 1009.4
20260506105150 44 89 0.0 3.0 0.00 0.01 0.00 68 1009.4
20260506104638 44 100 0.0 3.0 0.00 0.01 0.00 69 1009.4
20260506104135 44 78 0.0 4.0 0.00 0.01 0.00 69 1009.4
20260506103858 44 69 0.0 4.0 0.00 0.01 0.00 67 1009.3
20260506103121 45 85 0.0 3.0 0.00 0.01 0.00 68 1009.2
20260506102620 45 85 0.0 3.0 0.00 0.01 0.00 68 1009.1
20260506102114 45 254 0.0 1.0 0.00 0.01 0.00 71 1009.1
20260506101554 45 256 0.0 1.0 0.00 0.01 0.00 69 1009.1
20260506101009 45 99 0.0 1.0 0.00 0.01 0.00 69 1008.9
20260506100504 45 72 0.0 1.0 0.00 0.01 0.00 70 1009.1
20260506095937 46 91 0.0 3.0 0.00 0.01 0.00 69 1009.1
20260506095423 46 91 0.0 3.0 0.00 0.01 0.00 68 1009.0
20260506094910 46 91 0.0 2.0 0.00 0.01 0.00 67 1009.0
20260506094405 46 134 0.0 1.0 0.00 0.01 0.00 66 1008.9
20260506093904 46 103 0.0 1.0 0.00 0.01 0.00 66 1008.9
20260506093619 46 218 0.0 2.0 0.00 0.01 0.00 67 1008.8
20260506092834 46 94 0.0 3.0 0.00 0.01 0.00 67 1008.8
20260506092600 46 101 0.0 3.0 0.00 0.01 0.00 66 1008.5
20260506091820 46 92 0.0 2.0 0.00 0.01 0.00 68 1008.5
20260506091215 46 78 0.0 1.0 0.00 0.01 0.00 67 1008.6
20260506090656 46 108 0.0 2.0 0.00 0.01 0.00 68 1008.8
20260506090148 46 86 0.0 2.0 0.00 0.01 0.00 68 1008.6
20260506085647 46 248 0.0 2.0 0.00 0.01 0.00 68 1008.4
20260506085136 46 102 0.0 3.0 0.00 0.01 0.00 67 1008.4
20260506084635 46 79 0.0 3.0 0.00 0.01 0.00 66 1008.4
20260506084134 46 111 0.0 4.0 0.00 0.01 0.00 67 1008.4
20260506083859 46 117 0.0 4.0 0.00 0.01 0.00 68 1008.3
20260506083128 46 93 0.0 2.0 0.00 0.01 0.00 67 1008.6
20260506082548 46 86 0.0 2.0 0.00 0.01 0.00 68 1008.5
20260506082044 46 68 0.0 3.0 0.00 0.01 0.00 68 1008.5
20260506081546 46 188 0.0 3.0 0.00 0.01 0.00 68 1008.4
20260506081045 46 172 0.0 1.0 0.00 0.01 0.00 67 1008.4
20260506080742 46 91 0.0 3.0 0.00 0.01 0.00 66 1008.2
20260506073403 46 209 0.0 1.0 0.00 0.01 0.00 66 1008.6
20260506072855 46 105 0.0 4.0 0.00 0.01 0.00 67 1008.5
20260506072347 46 116 0.0 4.0 0.00 0.01 0.00 67 1008.4
20260506071844 46 89 0.0 1.0 0.00 0.01 0.00 67 1008.4
20260506071344 46 108 0.0 1.0 0.00 0.01 0.00 67 1008.3
20260506070837 47 151 0.0 1.0 0.00 0.01 0.00 68 1008.2
20260506070337 47 151 0.0 1.0 0.00 0.01 0.00 67 1008.3
20260506062121 47 198 0.0 1.0 0.00 0.01 0.00 66 1008.6
20260506061543 47 98 0.0 1.0 0.00 0.01 0.00 66 1008.8
20260506061031 47 98 0.0 2.0 0.00 0.01 0.00 67 1008.8
20260506060521 47 106 0.0 2.0 0.00 0.01 0.00 68 1009.0
20260506051404 48 201 0.0 0.0 0.00 0.04 0.00 67 1008.8
20260506050855 48 201 0.0 0.0 0.00 0.04 0.00 67 1008.8
20260506050334 48 201 0.0 0.0 0.00 0.04 0.00 64 1008.9
20260506044814 48 201 0.0 0.0 0.00 0.04 0.00 66 1008.9
20260506044307 48 201 0.0 0.0 0.00 0.04 0.00 64 1008.9
20260506043806 48 200 0.0 0.0 0.00 0.04 0.00 64 1008.9
20260506043251 48 200 0.0 0.0 0.00 0.05 0.00 64 1008.8
20260506042746 48 200 0.0 1.0 0.00 0.08 0.00 63 1008.8
20260506042228 48 87 0.0 1.0 0.00 0.09 0.00 65 1008.9
20260506041722 48 86 0.0 1.0 0.00 0.09 0.00 62 1008.8
20260506041158 48 86 0.0 0.0 0.00 0.09 0.00 63 1008.8
20260506040638 48 86 0.0 1.0 0.00 0.09 0.00 66 1008.8
20260506040129 48 86 0.0 1.0 0.00 0.09 0.00 65 1008.6
20260506035622 48 86 0.0 1.0 0.00 0.09 0.09 65 1008.6
20260506035109 48 86 0.0 0.0 0.00 0.09 0.09 62 1008.5
20260506034545 48 86 0.0 1.0 0.00 0.09 0.09 63 1008.4
20260506034315 48 86 0.0 1.0 0.00 0.09 0.09 61 1008.4
20260506033517 48 84 0.0 1.0 0.00 0.09 0.09 62 1008.4
20260506033019 49 84 0.0 0.0 0.00 0.09 0.09 62 1008.4
20260506032740 49 84 0.0 1.0 0.00 0.09 0.09 61 1008.5
20260506032005 49 84 0.0 1.0 0.00 0.09 0.09 60 1008.6
20260506031441 49 84 0.0 0.0 0.00 0.09 0.09 61 1008.8
20260506031214 49 84 0.0 0.0 0.00 0.09 0.09 61 1009.0
20260506030349 49 84 0.0 1.0 0.00 0.09 0.09 60 1009.0
20260506025837 49 84 0.0 1.0 0.00 0.09 0.09 60 1008.9
20260506025322 49 84 0.0 1.0 0.00 0.09 0.09 59 1008.9
20260506024801 49 84 0.0 1.0 0.00 0.09 0.09 59 1008.8
20260506024230 49 84 0.0 0.0 0.00 0.09 0.09 61 1008.9
20260506023911 49 84 0.0 0.0 0.00 0.10 0.09 60 1009.0
20260506023135 49 83 0.0 0.0 0.00 0.10 0.09 61 1008.9
20260506022626 49 83 0.0 0.0 0.00 0.10 0.09 60 1008.9
20260506022342 49 83 0.0 0.0 0.00 0.10 0.09 58 1008.8
20260506021604 49 83 0.0 0.0 0.00 0.10 0.09 58 1008.8
20260506021057 49 83 0.0 0.0 0.00 0.10 0.09 58 1008.8
20260506020818 50 83 0.0 1.0 0.00 0.10 0.09 58 1008.8
20260506020306 50 83 0.0 1.0 0.00 0.10 0.09 57 1008.8
20260506015536 50 83 0.0 1.0 0.00 0.10 0.09 58 1008.6
20260506015247 50 100 0.0 1.0 0.00 0.10 0.09 56 1008.6
20260506014511 50 101 0.0 1.0 0.00 0.10 0.09 56 1008.5
20260506013956 50 101 0.0 2.0 0.00 0.10 0.09 56 1008.3
20260506013453 50 101 0.0 4.0 0.00 0.10 0.09 57 1008.4
20260506012930 50 99 0.0 4.0 0.00 0.10 0.09 56 1008.4
20260506012659 50 92 0.0 2.0 0.00 0.10 0.09 55 1008.2
20260506012138 50 104 0.0 1.0 0.00 0.10 0.09 58 1008.2
20260506011348 51 94 0.0 2.0 0.00 0.10 0.09 56 1008.1
20260506010816 51 94 0.0 2.0 0.00 0.10 0.09 55 1008.0
20260506010248 51 102 0.0 3.0 0.00 0.10 0.09 55 1008.3
20260506005743 51 347 0.0 3.0 0.00 0.10 0.09 57 1008.3
20260506005212 51 72 0.0 2.0 0.00 0.10 0.09 54 1008.3
20260506004702 51 72 0.0 2.0 0.00 0.10 0.09 54 1008.2
20260506004409 51 169 0.0 4.0 0.00 0.10 0.09 56 1008.3
20260506003606 51 83 0.0 4.0 0.00 0.10 0.09 55 1008.3
20260506003047 51 191 0.0 3.0 0.00 0.12 0.09 57 1008.3
20260506002544 51 79 0.0 2.0 0.00 0.12 0.09 57 1008.3
20260506002020 52 86 0.0 3.0 0.00 0.12 0.09 55 1008.2
20260506001519 52 214 0.0 4.0 0.00 0.12 0.09 56 1008.3
20260506001018 52 134 0.0 4.0 0.00 0.12 0.09 56 1008.2
20260506000513 52 231 0.0 1.0 0.00 0.13 0.09 59 1008.2
20260506000009 52 89 0.0 1.0 0.00 0.13 0.09 60 1008.0
20260505235428 52 87 0.0 1.0 0.00 0.13 0.09 60 1008.1
20260505234917 52 87 0.0 2.0 0.00 0.13 0.09 57 1008.0
20260505234412 52 232 0.0 2.0 0.00 0.13 0.09 57 1007.7
20260505234126 52 144 0.0 1.0 0.00 0.13 0.09 60 1007.6
20260505233349 52 94 0.0 1.0 0.00 0.15 0.09 58 1007.7
20260505232845 52 101 0.0 1.0 0.00 0.16 0.09 59 1007.7
20260505232541 53 98 0.0 1.0 0.00 0.16 0.09 57 1007.5
20260505231717 53 101 0.0 2.0 0.00 0.16 0.09 59 1007.7
20260505231205 53 101 0.0 2.0 0.00 0.19 0.09 57 1003.0
20260505230704 53 79 0.0 3.0 0.00 0.20 0.09 56 1007.6
20260505230403 53 86 0.0 4.0 0.00 0.20 0.09 56 1007.7
20260505225633 53 252 0.0 4.0 0.00 0.20 0.09 57 1007.7
20260505225123 53 148 0.0 1.0 0.00 0.20 0.09 58 1007.7
20260505224622 54 188 0.0 1.0 0.00 0.20 0.09 57 1007.7
20260505224043 54 146 0.0 3.0 0.00 0.20 0.09 58 1007.8
20260505223459 54 86 0.0 2.0 0.00 0.20 0.09 57 1007.7
20260505222942 54 229 0.0 4.0 0.00 0.20 0.09 58 1007.8
20260505222441 54 193 0.0 4.0 0.00 0.20 0.09 56 1007.8
20260505221932 54 65 1.0 9.0 0.00 0.20 0.09 60 1007.8
20260505221501 54 85 1.0 7.0 0.00 0.20 0.09 60 1007.8
20260505221449 54 257 1.0 9.0 0.00 0.20 0.09 57 1007.9
20260505220412 54 126 1.0 3.0 0.00 0.20 0.09 61 1007.8
20260505215853 55 78 0.0 5.0 0.00 0.20 0.09 61 1007.8
20260505215355 55 110 0.0 5.0 0.00 0.20 0.09 61 1007.8
20260505214851 55 65 1.0 4.0 0.00 0.20 0.09 64 1007.9
20260505214547 55 66 1.0 4.0 0.00 0.20 0.09 66 1007.9
20260505213813 55 190 1.0 3.0 0.00 0.20 0.09 68 1007.8
20260505213544 55 89 0.0 3.0 0.00 0.20 0.09 70 1007.9
20260505213044 55 97 0.0 3.0 0.00 0.20 0.09 70 1007.9
20260505212308 55 226 0.0 5.0 0.00 0.20 0.09 70 1007.8
20260505212024 55 50 0.0 6.0 0.00 0.20 0.09 70 1007.8